<?xml version="1.0" encoding="UTF-8" standalone="no" ?>
<gpx xmlns="http://www.topografix.com/GPX/1/1" xmlns:xsi="http://www.w3.org/2001/XMLSchema-instance" xsi:schemaLocation="http://www.topografix.com/GPX/1/1 http://www.topografix.com/GPX/1/1/gpx.xsd" version="1.1" creator="VisuGPX - https://www.visugpx.com">
  <metadata>
    <name>Parcours VTT FFC Saillans</name>
  </metadata>
  <trk>
    <name><![CDATA[VTT N°6 rouge - Les  Auberts - 13 km - Déniv 420 m]]></name>
    <extensions>
      <line xmlns="http://www.topografix.com/GPX/gpx_style/0/2">
        <color>f90025</color>
        <width>4</width>
      </line>
    </extensions>
    <trkseg>
      <trkpt lat="44.69689" lon="5.1996">
        <ele>269</ele>
        <time>2022-11-17T10:14:11Z</time>
      </trkpt>
      <trkpt lat="44.69685" lon="5.19972">
        <ele>269</ele>
        <time>2022-11-17T10:14:11Z</time>
      </trkpt>
      <trkpt lat="44.69679" lon="5.20062">
        <ele>268</ele>
      </trkpt>
      <trkpt lat="44.69672" lon="5.20151">
        <ele>267</ele>
        <time>2022-11-17T10:14:11Z</time>
      </trkpt>
      <trkpt lat="44.69677" lon="5.20226">
        <ele>267</ele>
      </trkpt>
      <trkpt lat="44.69681" lon="5.203">
        <ele>269</ele>
        <time>2022-11-17T10:14:11Z</time>
      </trkpt>
      <trkpt lat="44.69677" lon="5.2032">
        <ele>271</ele>
        <time>2022-11-17T10:14:11Z</time>
      </trkpt>
      <trkpt lat="44.6967" lon="5.20338">
        <ele>272</ele>
        <time>2022-11-17T10:14:11Z</time>
      </trkpt>
      <trkpt lat="44.69633" lon="5.2039">
        <ele>273</ele>
        <time>2022-11-17T10:14:11Z</time>
      </trkpt>
      <trkpt lat="44.69609" lon="5.2041">
        <ele>273</ele>
        <time>2022-11-17T10:14:11Z</time>
      </trkpt>
      <trkpt lat="44.69512" lon="5.20463">
        <ele>272</ele>
      </trkpt>
      <trkpt lat="44.69414" lon="5.20515">
        <ele>272</ele>
        <time>2022-11-17T10:14:11Z</time>
      </trkpt>
      <trkpt lat="44.69316" lon="5.20522">
        <ele>273</ele>
        <time>2022-11-17T10:14:11Z</time>
      </trkpt>
      <trkpt lat="44.69299" lon="5.20513">
        <ele>274</ele>
        <time>2022-11-17T10:14:11Z</time>
      </trkpt>
      <trkpt lat="44.69342" lon="5.2041">
        <ele>270</ele>
      </trkpt>
      <trkpt lat="44.69384" lon="5.20308">
        <ele>271</ele>
      </trkpt>
      <trkpt lat="44.69427" lon="5.20205">
        <ele>273</ele>
      </trkpt>
      <trkpt lat="44.69469" lon="5.20102">
        <ele>274</ele>
        <time>2022-11-17T10:14:11Z</time>
      </trkpt>
      <trkpt lat="44.69485" lon="5.20101">
        <ele>275</ele>
        <time>2022-11-17T10:14:11Z</time>
      </trkpt>
      <trkpt lat="44.69496" lon="5.20092">
        <ele>275</ele>
        <time>2022-11-17T10:14:11Z</time>
      </trkpt>
      <trkpt lat="44.69509" lon="5.20065">
        <ele>275</ele>
        <time>2022-11-17T10:14:11Z</time>
      </trkpt>
      <trkpt lat="44.69511" lon="5.20049">
        <ele>276</ele>
        <time>2022-11-17T10:14:11Z</time>
      </trkpt>
      <trkpt lat="44.69509" lon="5.20035">
        <ele>276</ele>
        <time>2022-11-17T10:14:11Z</time>
      </trkpt>
      <trkpt lat="44.695" lon="5.20007">
        <ele>276</ele>
        <time>2022-11-17T10:14:11Z</time>
      </trkpt>
      <trkpt lat="44.6949" lon="5.19994">
        <ele>276</ele>
        <time>2022-11-17T10:14:11Z</time>
      </trkpt>
      <trkpt lat="44.69477" lon="5.19969">
        <ele>277</ele>
        <time>2022-11-17T10:14:11Z</time>
      </trkpt>
      <trkpt lat="44.69475" lon="5.19957">
        <ele>277</ele>
        <time>2022-11-17T10:14:11Z</time>
      </trkpt>
      <trkpt lat="44.69473" lon="5.19924">
        <ele>277</ele>
        <time>2022-11-17T10:14:11Z</time>
      </trkpt>
      <trkpt lat="44.69467" lon="5.1991">
        <ele>278</ele>
        <time>2022-11-17T10:14:11Z</time>
      </trkpt>
      <trkpt lat="44.69425" lon="5.19877">
        <ele>279</ele>
        <time>2022-11-17T10:14:11Z</time>
      </trkpt>
      <trkpt lat="44.69343" lon="5.19851">
        <ele>282</ele>
        <time>2022-11-17T10:14:11Z</time>
      </trkpt>
      <trkpt lat="44.69244" lon="5.19842">
        <ele>286</ele>
      </trkpt>
      <trkpt lat="44.69144" lon="5.19833">
        <ele>290</ele>
        <time>2022-11-17T10:14:11Z</time>
      </trkpt>
      <trkpt lat="44.69134" lon="5.19828">
        <ele>292</ele>
        <time>2022-11-17T10:14:11Z</time>
      </trkpt>
      <trkpt lat="44.6903" lon="5.19826">
        <ele>296</ele>
        <time>2022-11-17T10:14:11Z</time>
      </trkpt>
      <trkpt lat="44.69019" lon="5.19821">
        <ele>298</ele>
        <time>2022-11-17T10:14:11Z</time>
      </trkpt>
      <trkpt lat="44.69003" lon="5.19808">
        <ele>300</ele>
        <time>2022-11-17T10:14:11Z</time>
      </trkpt>
      <trkpt lat="44.68957" lon="5.19813">
        <ele>301</ele>
        <time>2022-11-17T10:14:11Z</time>
      </trkpt>
      <trkpt lat="44.68905" lon="5.19797">
        <ele>304</ele>
      </trkpt>
      <trkpt lat="44.68853" lon="5.19781">
        <ele>306</ele>
      </trkpt>
      <trkpt lat="44.68801" lon="5.19764">
        <ele>309</ele>
      </trkpt>
      <trkpt lat="44.68749" lon="5.19748">
        <ele>311</ele>
      </trkpt>
      <trkpt lat="44.68696" lon="5.19732">
        <ele>313</ele>
      </trkpt>
      <trkpt lat="44.68644" lon="5.19716">
        <ele>315</ele>
      </trkpt>
      <trkpt lat="44.68592" lon="5.197">
        <ele>317</ele>
      </trkpt>
      <trkpt lat="44.6854" lon="5.19683">
        <ele>319</ele>
      </trkpt>
      <trkpt lat="44.68488" lon="5.19667">
        <ele>321</ele>
      </trkpt>
      <trkpt lat="44.68436" lon="5.19651">
        <ele>323</ele>
      </trkpt>
      <trkpt lat="44.68384" lon="5.19635">
        <ele>325</ele>
      </trkpt>
      <trkpt lat="44.68332" lon="5.19619">
        <ele>326</ele>
      </trkpt>
      <trkpt lat="44.68279" lon="5.19603">
        <ele>328</ele>
      </trkpt>
      <trkpt lat="44.68227" lon="5.19586">
        <ele>332</ele>
      </trkpt>
      <trkpt lat="44.68175" lon="5.1957">
        <ele>334</ele>
      </trkpt>
      <trkpt lat="44.68123" lon="5.19554">
        <ele>334</ele>
        <time>2022-11-17T10:14:11Z</time>
      </trkpt>
      <trkpt lat="44.68034" lon="5.19496">
        <ele>336</ele>
      </trkpt>
      <trkpt lat="44.67945" lon="5.19439">
        <ele>338</ele>
        <time>2022-11-17T10:14:11Z</time>
      </trkpt>
      <trkpt lat="44.67926" lon="5.19437">
        <ele>339</ele>
        <time>2022-11-17T10:14:11Z</time>
      </trkpt>
      <trkpt lat="44.67862" lon="5.19458">
        <ele>340</ele>
      </trkpt>
      <trkpt lat="44.67798" lon="5.19479">
        <ele>341</ele>
      </trkpt>
      <trkpt lat="44.67734" lon="5.19499">
        <ele>342</ele>
      </trkpt>
      <trkpt lat="44.6767" lon="5.1952">
        <ele>344</ele>
        <time>2022-11-17T10:14:11Z</time>
      </trkpt>
      <trkpt lat="44.67582" lon="5.1952">
        <ele>351</ele>
        <time>2022-11-17T10:14:11Z</time>
      </trkpt>
      <trkpt lat="44.6757" lon="5.19527">
        <ele>355</ele>
        <time>2022-11-17T10:14:11Z</time>
      </trkpt>
      <trkpt lat="44.67563" lon="5.19534">
        <ele>357</ele>
        <time>2022-11-17T10:14:11Z</time>
      </trkpt>
      <trkpt lat="44.67556" lon="5.19547">
        <ele>359</ele>
        <time>2022-11-17T10:14:11Z</time>
      </trkpt>
      <trkpt lat="44.67548" lon="5.19581">
        <ele>359</ele>
        <time>2022-11-17T10:14:11Z</time>
      </trkpt>
      <trkpt lat="44.6754" lon="5.19591">
        <ele>359</ele>
        <time>2022-11-17T10:14:11Z</time>
      </trkpt>
      <trkpt lat="44.67492" lon="5.19629">
        <ele>360</ele>
        <time>2022-11-17T10:14:11Z</time>
      </trkpt>
      <trkpt lat="44.67453" lon="5.19634">
        <ele>361</ele>
        <time>2022-11-17T10:14:11Z</time>
      </trkpt>
      <trkpt lat="44.67438" lon="5.19628">
        <ele>362</ele>
        <time>2022-11-17T10:14:11Z</time>
      </trkpt>
      <trkpt lat="44.67424" lon="5.19628">
        <ele>363</ele>
        <time>2022-11-17T10:14:11Z</time>
      </trkpt>
      <trkpt lat="44.67407" lon="5.1964">
        <ele>363</ele>
        <time>2022-11-17T10:14:11Z</time>
      </trkpt>
      <trkpt lat="44.67391" lon="5.19661">
        <ele>364</ele>
        <time>2022-11-17T10:14:11Z</time>
      </trkpt>
      <trkpt lat="44.67386" lon="5.19674">
        <ele>365</ele>
        <time>2022-11-17T10:14:11Z</time>
      </trkpt>
      <trkpt lat="44.6738" lon="5.19712">
        <ele>366</ele>
        <time>2022-11-17T10:14:11Z</time>
      </trkpt>
      <trkpt lat="44.6736" lon="5.19747">
        <ele>368</ele>
        <time>2022-11-17T10:14:11Z</time>
      </trkpt>
      <trkpt lat="44.67349" lon="5.19818">
        <ele>373</ele>
        <time>2022-11-17T10:14:11Z</time>
      </trkpt>
      <trkpt lat="44.67343" lon="5.19827">
        <ele>373</ele>
        <time>2022-11-17T10:14:11Z</time>
      </trkpt>
      <trkpt lat="44.6722" lon="5.19917">
        <ele>377</ele>
        <time>2022-11-17T10:14:11Z</time>
      </trkpt>
      <trkpt lat="44.672" lon="5.19945">
        <ele>378</ele>
        <time>2022-11-17T10:14:11Z</time>
      </trkpt>
      <trkpt lat="44.67143" lon="5.19974">
        <ele>382</ele>
        <time>2022-11-17T10:14:11Z</time>
      </trkpt>
      <trkpt lat="44.67103" lon="5.20019">
        <ele>385</ele>
        <time>2022-11-17T10:14:11Z</time>
      </trkpt>
      <trkpt lat="44.6708" lon="5.20061">
        <ele>388</ele>
        <time>2022-11-17T10:14:11Z</time>
      </trkpt>
      <trkpt lat="44.6707" lon="5.20093">
        <ele>390</ele>
        <time>2022-11-17T10:14:11Z</time>
      </trkpt>
      <trkpt lat="44.67063" lon="5.20105">
        <ele>391</ele>
        <time>2022-11-17T10:14:11Z</time>
      </trkpt>
      <trkpt lat="44.67056" lon="5.20109">
        <ele>392</ele>
        <time>2022-11-17T10:14:11Z</time>
      </trkpt>
      <trkpt lat="44.6703" lon="5.20117">
        <ele>394</ele>
        <time>2022-11-17T10:14:11Z</time>
      </trkpt>
      <trkpt lat="44.6702" lon="5.20127">
        <ele>395</ele>
        <time>2022-11-17T10:14:11Z</time>
      </trkpt>
      <trkpt lat="44.6701" lon="5.20128">
        <ele>396</ele>
        <time>2022-11-17T10:14:11Z</time>
      </trkpt>
      <trkpt lat="44.67003" lon="5.20133">
        <ele>397</ele>
        <time>2022-11-17T10:14:11Z</time>
      </trkpt>
      <trkpt lat="44.66993" lon="5.20144">
        <ele>398</ele>
        <time>2022-11-17T10:14:11Z</time>
      </trkpt>
      <trkpt lat="44.66965" lon="5.20214">
        <ele>398</ele>
        <time>2022-11-17T10:14:11Z</time>
      </trkpt>
      <trkpt lat="44.668" lon="5.20418">
        <ele>405</ele>
        <time>2022-11-17T10:14:11Z</time>
      </trkpt>
      <trkpt lat="44.66629" lon="5.2053">
        <ele>414</ele>
        <time>2022-11-17T10:14:11Z</time>
      </trkpt>
      <trkpt lat="44.66619" lon="5.20549">
        <ele>418</ele>
        <time>2022-11-17T10:14:11Z</time>
      </trkpt>
      <trkpt lat="44.66598" lon="5.20614">
        <ele>421</ele>
        <time>2022-11-17T10:14:11Z</time>
      </trkpt>
      <trkpt lat="44.66591" lon="5.20616">
        <ele>422</ele>
        <time>2022-11-17T10:14:11Z</time>
      </trkpt>
      <trkpt lat="44.66585" lon="5.20603">
        <ele>424</ele>
        <time>2022-11-17T10:14:11Z</time>
      </trkpt>
      <trkpt lat="44.66585" lon="5.20593">
        <ele>425</ele>
        <time>2022-11-17T10:14:11Z</time>
      </trkpt>
      <trkpt lat="44.66597" lon="5.20539">
        <ele>426</ele>
        <time>2022-11-17T10:14:11Z</time>
      </trkpt>
      <trkpt lat="44.66598" lon="5.20521">
        <ele>427</ele>
        <time>2022-11-17T10:14:11Z</time>
      </trkpt>
      <trkpt lat="44.66588" lon="5.20492">
        <ele>429</ele>
        <time>2022-11-17T10:14:11Z</time>
      </trkpt>
      <trkpt lat="44.66578" lon="5.20425">
        <ele>433</ele>
        <time>2022-11-17T10:14:11Z</time>
      </trkpt>
      <trkpt lat="44.66579" lon="5.20413">
        <ele>435</ele>
        <time>2022-11-17T10:14:11Z</time>
      </trkpt>
      <trkpt lat="44.66582" lon="5.20401">
        <ele>437</ele>
        <time>2022-11-17T10:14:11Z</time>
      </trkpt>
      <trkpt lat="44.66583" lon="5.20369">
        <ele>439</ele>
        <time>2022-11-17T10:14:11Z</time>
      </trkpt>
      <trkpt lat="44.66551" lon="5.20297">
        <ele>444</ele>
        <time>2022-11-17T10:14:11Z</time>
      </trkpt>
      <trkpt lat="44.66552" lon="5.20231">
        <ele>449</ele>
        <time>2022-11-17T10:14:11Z</time>
      </trkpt>
      <trkpt lat="44.66547" lon="5.2022">
        <ele>453</ele>
        <time>2022-11-17T10:14:11Z</time>
      </trkpt>
      <trkpt lat="44.66545" lon="5.20164">
        <ele>459</ele>
        <time>2022-11-17T10:14:11Z</time>
      </trkpt>
      <trkpt lat="44.66486" lon="5.20069">
        <ele>468</ele>
        <time>2022-11-17T10:14:11Z</time>
      </trkpt>
      <trkpt lat="44.66476" lon="5.20025">
        <ele>476</ele>
        <time>2022-11-17T10:14:11Z</time>
      </trkpt>
      <trkpt lat="44.66452" lon="5.20009">
        <ele>483</ele>
        <time>2022-11-17T10:14:11Z</time>
      </trkpt>
      <trkpt lat="44.66305" lon="5.19756">
        <ele>511</ele>
        <time>2022-11-17T10:14:11Z</time>
      </trkpt>
      <trkpt lat="44.6629" lon="5.19673">
        <ele>529</ele>
        <time>2022-11-17T10:14:11Z</time>
      </trkpt>
      <trkpt lat="44.66289" lon="5.19601">
        <ele>540</ele>
        <time>2022-11-17T10:14:11Z</time>
      </trkpt>
      <trkpt lat="44.6625" lon="5.19402">
        <ele>558</ele>
        <time>2022-11-17T10:14:11Z</time>
      </trkpt>
      <trkpt lat="44.66216" lon="5.19313">
        <ele>573</ele>
        <time>2022-11-17T10:14:11Z</time>
      </trkpt>
      <trkpt lat="44.66266" lon="5.19271">
        <ele>583</ele>
        <time>2022-11-17T10:14:11Z</time>
      </trkpt>
      <trkpt lat="44.6628" lon="5.19272">
        <ele>589</ele>
        <time>2022-11-17T10:14:11Z</time>
      </trkpt>
      <trkpt lat="44.66289" lon="5.19276">
        <ele>593</ele>
        <time>2022-11-17T10:14:11Z</time>
      </trkpt>
      <trkpt lat="44.66354" lon="5.19384">
        <ele>599</ele>
        <time>2022-11-17T10:14:11Z</time>
      </trkpt>
      <trkpt lat="44.66372" lon="5.19437">
        <ele>604</ele>
        <time>2022-11-17T10:14:11Z</time>
      </trkpt>
      <trkpt lat="44.66378" lon="5.19443">
        <ele>607</ele>
        <time>2022-11-17T10:14:11Z</time>
      </trkpt>
      <trkpt lat="44.66381" lon="5.19432">
        <ele>610</ele>
        <time>2022-11-17T10:14:11Z</time>
      </trkpt>
      <trkpt lat="44.66375" lon="5.19413">
        <ele>612</ele>
        <time>2022-11-17T10:14:11Z</time>
      </trkpt>
      <trkpt lat="44.66373" lon="5.19354">
        <ele>632</ele>
        <time>2022-11-17T10:14:11Z</time>
      </trkpt>
      <trkpt lat="44.66378" lon="5.19328">
        <ele>633</ele>
        <time>2022-11-17T10:14:11Z</time>
      </trkpt>
      <trkpt lat="44.66355" lon="5.19165">
        <ele>636</ele>
        <time>2022-11-17T10:14:11Z</time>
      </trkpt>
      <trkpt lat="44.66327" lon="5.19095">
        <ele>638</ele>
        <time>2022-11-17T10:14:11Z</time>
      </trkpt>
      <trkpt lat="44.66312" lon="5.19081">
        <ele>639</ele>
        <time>2022-11-17T10:14:11Z</time>
      </trkpt>
      <trkpt lat="44.66304" lon="5.19065">
        <ele>640</ele>
        <time>2022-11-17T10:14:11Z</time>
      </trkpt>
      <trkpt lat="44.66302" lon="5.19049">
        <ele>641</ele>
        <time>2022-11-17T10:14:11Z</time>
      </trkpt>
      <trkpt lat="44.66309" lon="5.18892">
        <ele>640</ele>
        <time>2022-11-17T10:14:11Z</time>
      </trkpt>
      <trkpt lat="44.66314" lon="5.18878">
        <ele>639</ele>
        <time>2022-11-17T10:14:11Z</time>
      </trkpt>
      <trkpt lat="44.66345" lon="5.18836">
        <ele>638</ele>
        <time>2022-11-17T10:14:11Z</time>
      </trkpt>
      <trkpt lat="44.6635" lon="5.18825">
        <ele>636</ele>
        <time>2022-11-17T10:14:11Z</time>
      </trkpt>
      <trkpt lat="44.6634" lon="5.18755">
        <ele>638</ele>
        <time>2022-11-17T10:14:11Z</time>
      </trkpt>
      <trkpt lat="44.66341" lon="5.18745">
        <ele>639</ele>
        <time>2022-11-17T10:14:11Z</time>
      </trkpt>
      <trkpt lat="44.66345" lon="5.18735">
        <ele>639</ele>
        <time>2022-11-17T10:14:11Z</time>
      </trkpt>
      <trkpt lat="44.66344" lon="5.18719">
        <ele>639</ele>
        <time>2022-11-17T10:14:11Z</time>
      </trkpt>
      <trkpt lat="44.66323" lon="5.18648">
        <ele>641</ele>
        <time>2022-11-17T10:14:11Z</time>
      </trkpt>
      <trkpt lat="44.66318" lon="5.18639">
        <ele>643</ele>
        <time>2022-11-17T10:14:11Z</time>
      </trkpt>
      <trkpt lat="44.66298" lon="5.18631">
        <ele>645</ele>
        <time>2022-11-17T10:14:11Z</time>
      </trkpt>
      <trkpt lat="44.66292" lon="5.18626">
        <ele>647</ele>
        <time>2022-11-17T10:14:11Z</time>
      </trkpt>
      <trkpt lat="44.66288" lon="5.18607">
        <ele>648</ele>
        <time>2022-11-17T10:14:11Z</time>
      </trkpt>
      <trkpt lat="44.66289" lon="5.18592">
        <ele>650</ele>
        <time>2022-11-17T10:14:11Z</time>
      </trkpt>
      <trkpt lat="44.66306" lon="5.18542">
        <ele>652</ele>
        <time>2022-11-17T10:14:11Z</time>
      </trkpt>
      <trkpt lat="44.66316" lon="5.18531">
        <ele>654</ele>
        <time>2022-11-17T10:14:11Z</time>
      </trkpt>
      <trkpt lat="44.66325" lon="5.1851">
        <ele>656</ele>
        <time>2022-11-17T10:14:11Z</time>
      </trkpt>
      <trkpt lat="44.66321" lon="5.18501">
        <ele>658</ele>
        <time>2022-11-17T10:14:11Z</time>
      </trkpt>
      <trkpt lat="44.66253" lon="5.18531">
        <ele>662</ele>
        <time>2022-11-17T10:14:11Z</time>
      </trkpt>
      <trkpt lat="44.66249" lon="5.18521">
        <ele>665</ele>
        <time>2022-11-17T10:14:11Z</time>
      </trkpt>
      <trkpt lat="44.66256" lon="5.18513">
        <ele>667</ele>
        <time>2022-11-17T10:14:11Z</time>
      </trkpt>
      <trkpt lat="44.66266" lon="5.18505">
        <ele>668</ele>
        <time>2022-11-17T10:14:11Z</time>
      </trkpt>
      <trkpt lat="44.66276" lon="5.18493">
        <ele>670</ele>
        <time>2022-11-17T10:14:11Z</time>
      </trkpt>
      <trkpt lat="44.66284" lon="5.18458">
        <ele>672</ele>
        <time>2022-11-17T10:14:11Z</time>
      </trkpt>
      <trkpt lat="44.66293" lon="5.1844">
        <ele>674</ele>
        <time>2022-11-17T10:14:11Z</time>
      </trkpt>
      <trkpt lat="44.66353" lon="5.18379">
        <ele>678</ele>
        <time>2022-11-17T10:14:11Z</time>
      </trkpt>
      <trkpt lat="44.66385" lon="5.18368">
        <ele>682</ele>
        <time>2022-11-17T10:14:11Z</time>
      </trkpt>
      <trkpt lat="44.6639" lon="5.18355">
        <ele>684</ele>
        <time>2022-11-17T10:14:11Z</time>
      </trkpt>
      <trkpt lat="44.6641" lon="5.18348">
        <ele>686</ele>
        <time>2022-11-17T10:14:11Z</time>
      </trkpt>
      <trkpt lat="44.6642" lon="5.18349">
        <ele>687</ele>
        <time>2022-11-17T10:14:11Z</time>
      </trkpt>
      <trkpt lat="44.66544" lon="5.18422">
        <ele>685</ele>
        <time>2022-11-17T10:14:11Z</time>
      </trkpt>
      <trkpt lat="44.66567" lon="5.18456">
        <ele>684</ele>
        <time>2022-11-17T10:14:11Z</time>
      </trkpt>
      <trkpt lat="44.66655" lon="5.18517">
        <ele>674</ele>
        <time>2022-11-17T10:14:11Z</time>
      </trkpt>
      <trkpt lat="44.66687" lon="5.18566">
        <ele>665</ele>
        <time>2022-11-17T10:14:11Z</time>
      </trkpt>
      <trkpt lat="44.66703" lon="5.18577">
        <ele>657</ele>
        <time>2022-11-17T10:14:11Z</time>
      </trkpt>
      <trkpt lat="44.66733" lon="5.18586">
        <ele>650</ele>
        <time>2022-11-17T10:14:11Z</time>
      </trkpt>
      <trkpt lat="44.66746" lon="5.18584">
        <ele>645</ele>
        <time>2022-11-17T10:14:11Z</time>
      </trkpt>
      <trkpt lat="44.66785" lon="5.18598">
        <ele>640</ele>
        <time>2022-11-17T10:14:11Z</time>
      </trkpt>
      <trkpt lat="44.66825" lon="5.18599">
        <ele>633</ele>
        <time>2022-11-17T10:14:11Z</time>
      </trkpt>
      <trkpt lat="44.669" lon="5.18581">
        <ele>621</ele>
        <time>2022-11-17T10:14:11Z</time>
      </trkpt>
      <trkpt lat="44.66906" lon="5.18588">
        <ele>614</ele>
        <time>2022-11-17T10:14:11Z</time>
      </trkpt>
      <trkpt lat="44.66906" lon="5.18601">
        <ele>608</ele>
        <time>2022-11-17T10:14:11Z</time>
      </trkpt>
      <trkpt lat="44.66912" lon="5.18606">
        <ele>604</ele>
        <time>2022-11-17T10:14:11Z</time>
      </trkpt>
      <trkpt lat="44.66924" lon="5.18603">
        <ele>578</ele>
        <time>2022-11-17T10:14:11Z</time>
      </trkpt>
      <trkpt lat="44.66937" lon="5.18592">
        <ele>578</ele>
        <time>2022-11-17T10:14:11Z</time>
      </trkpt>
      <trkpt lat="44.66948" lon="5.18587">
        <ele>577</ele>
        <time>2022-11-17T10:14:11Z</time>
      </trkpt>
      <trkpt lat="44.66957" lon="5.18587">
        <ele>576</ele>
        <time>2022-11-17T10:14:11Z</time>
      </trkpt>
      <trkpt lat="44.66966" lon="5.18594">
        <ele>575</ele>
        <time>2022-11-17T10:14:11Z</time>
      </trkpt>
      <trkpt lat="44.66999" lon="5.18598">
        <ele>572</ele>
        <time>2022-11-17T10:14:11Z</time>
      </trkpt>
      <trkpt lat="44.6704" lon="5.18615">
        <ele>567</ele>
        <time>2022-11-17T10:14:11Z</time>
      </trkpt>
      <trkpt lat="44.67055" lon="5.18614">
        <ele>561</ele>
        <time>2022-11-17T10:14:11Z</time>
      </trkpt>
      <trkpt lat="44.67073" lon="5.18602">
        <ele>557</ele>
        <time>2022-11-17T10:14:11Z</time>
      </trkpt>
      <trkpt lat="44.67089" lon="5.18598">
        <ele>553</ele>
        <time>2022-11-17T10:14:11Z</time>
      </trkpt>
      <trkpt lat="44.67155" lon="5.18609">
        <ele>546</ele>
        <time>2022-11-17T10:14:11Z</time>
      </trkpt>
      <trkpt lat="44.67171" lon="5.18618">
        <ele>541</ele>
        <time>2022-11-17T10:14:11Z</time>
      </trkpt>
      <trkpt lat="44.672" lon="5.1862">
        <ele>536</ele>
        <time>2022-11-17T10:14:11Z</time>
      </trkpt>
      <trkpt lat="44.67218" lon="5.18601">
        <ele>532</ele>
        <time>2022-11-17T10:14:11Z</time>
      </trkpt>
      <trkpt lat="44.6723" lon="5.18594">
        <ele>529</ele>
        <time>2022-11-17T10:14:11Z</time>
      </trkpt>
      <trkpt lat="44.6724" lon="5.18597">
        <ele>526</ele>
        <time>2022-11-17T10:14:11Z</time>
      </trkpt>
      <trkpt lat="44.67263" lon="5.18617">
        <ele>524</ele>
        <time>2022-11-17T10:14:11Z</time>
      </trkpt>
      <trkpt lat="44.67274" lon="5.1862">
        <ele>522</ele>
        <time>2022-11-17T10:14:11Z</time>
      </trkpt>
      <trkpt lat="44.67274" lon="5.18636">
        <ele>521</ele>
        <time>2022-11-17T10:14:11Z</time>
      </trkpt>
      <trkpt lat="44.6729" lon="5.18707">
        <ele>518</ele>
        <time>2022-11-17T10:14:11Z</time>
      </trkpt>
      <trkpt lat="44.67295" lon="5.18715">
        <ele>516</ele>
        <time>2022-11-17T10:14:11Z</time>
      </trkpt>
      <trkpt lat="44.67301" lon="5.18721">
        <ele>514</ele>
        <time>2022-11-17T10:14:11Z</time>
      </trkpt>
      <trkpt lat="44.6747" lon="5.18773">
        <ele>507</ele>
        <time>2022-11-17T10:14:11Z</time>
      </trkpt>
      <trkpt lat="44.67514" lon="5.18753">
        <ele>502</ele>
        <time>2022-11-17T10:14:11Z</time>
      </trkpt>
      <trkpt lat="44.67722" lon="5.18748">
        <ele>488</ele>
        <time>2022-11-17T10:14:11Z</time>
      </trkpt>
      <trkpt lat="44.67742" lon="5.18755">
        <ele>481</ele>
        <time>2022-11-17T10:14:11Z</time>
      </trkpt>
      <trkpt lat="44.6777" lon="5.18778">
        <ele>475</ele>
        <time>2022-11-17T10:14:11Z</time>
      </trkpt>
      <trkpt lat="44.67802" lon="5.18779">
        <ele>471</ele>
        <time>2022-11-17T10:14:11Z</time>
      </trkpt>
      <trkpt lat="44.67848" lon="5.18763">
        <ele>469</ele>
        <time>2022-11-17T10:14:11Z</time>
      </trkpt>
      <trkpt lat="44.6786" lon="5.18768">
        <ele>468</ele>
        <time>2022-11-17T10:14:11Z</time>
      </trkpt>
      <trkpt lat="44.67877" lon="5.1879">
        <ele>467</ele>
        <time>2022-11-17T10:14:11Z</time>
      </trkpt>
      <trkpt lat="44.67884" lon="5.18792">
        <ele>466</ele>
        <time>2022-11-17T10:14:11Z</time>
      </trkpt>
      <trkpt lat="44.67928" lon="5.18837">
        <ele>464</ele>
        <time>2022-11-17T10:14:11Z</time>
      </trkpt>
      <trkpt lat="44.6798" lon="5.18868">
        <ele>463</ele>
        <time>2022-11-17T10:14:11Z</time>
      </trkpt>
      <trkpt lat="44.67998" lon="5.18871">
        <ele>461</ele>
        <time>2022-11-17T10:14:11Z</time>
      </trkpt>
      <trkpt lat="44.68009" lon="5.18867">
        <ele>460</ele>
        <time>2022-11-17T10:14:11Z</time>
      </trkpt>
      <trkpt lat="44.68065" lon="5.18869">
        <ele>458</ele>
        <time>2022-11-17T10:14:11Z</time>
      </trkpt>
      <trkpt lat="44.68151" lon="5.18911">
        <ele>457</ele>
        <time>2022-11-17T10:14:11Z</time>
      </trkpt>
      <trkpt lat="44.68159" lon="5.18904">
        <ele>456</ele>
        <time>2022-11-17T10:14:11Z</time>
      </trkpt>
      <trkpt lat="44.68163" lon="5.18891">
        <ele>455</ele>
        <time>2022-11-17T10:14:11Z</time>
      </trkpt>
      <trkpt lat="44.68172" lon="5.18882">
        <ele>453</ele>
        <time>2022-11-17T10:14:11Z</time>
      </trkpt>
      <trkpt lat="44.68185" lon="5.1888">
        <ele>452</ele>
        <time>2022-11-17T10:14:11Z</time>
      </trkpt>
      <trkpt lat="44.68295" lon="5.18899">
        <ele>451</ele>
        <time>2022-11-17T10:14:11Z</time>
      </trkpt>
      <trkpt lat="44.6831" lon="5.18912">
        <ele>450</ele>
        <time>2022-11-17T10:14:11Z</time>
      </trkpt>
      <trkpt lat="44.68329" lon="5.18944">
        <ele>449</ele>
        <time>2022-11-17T10:14:11Z</time>
      </trkpt>
      <trkpt lat="44.68338" lon="5.18952">
        <ele>448</ele>
        <time>2022-11-17T10:14:11Z</time>
      </trkpt>
      <trkpt lat="44.68382" lon="5.18971">
        <ele>446</ele>
        <time>2022-11-17T10:14:11Z</time>
      </trkpt>
      <trkpt lat="44.6839" lon="5.18984">
        <ele>444</ele>
        <time>2022-11-17T10:14:11Z</time>
      </trkpt>
      <trkpt lat="44.68394" lon="5.19039">
        <ele>442</ele>
        <time>2022-11-17T10:14:11Z</time>
      </trkpt>
      <trkpt lat="44.68406" lon="5.19067">
        <ele>439</ele>
        <time>2022-11-17T10:14:11Z</time>
      </trkpt>
      <trkpt lat="44.68451" lon="5.1912">
        <ele>424</ele>
        <time>2022-11-17T10:14:11Z</time>
      </trkpt>
      <trkpt lat="44.68461" lon="5.19126">
        <ele>423</ele>
        <time>2022-11-17T10:14:11Z</time>
      </trkpt>
      <trkpt lat="44.6848" lon="5.19122">
        <ele>422</ele>
        <time>2022-11-17T10:14:11Z</time>
      </trkpt>
      <trkpt lat="44.685" lon="5.19104">
        <ele>421</ele>
        <time>2022-11-17T10:14:11Z</time>
      </trkpt>
      <trkpt lat="44.68523" lon="5.19095">
        <ele>418</ele>
        <time>2022-11-17T10:14:11Z</time>
      </trkpt>
      <trkpt lat="44.68563" lon="5.19086">
        <ele>415</ele>
        <time>2022-11-17T10:14:11Z</time>
      </trkpt>
      <trkpt lat="44.68574" lon="5.19088">
        <ele>413</ele>
        <time>2022-11-17T10:14:11Z</time>
      </trkpt>
      <trkpt lat="44.68629" lon="5.19203">
        <ele>409</ele>
        <time>2022-11-17T10:14:11Z</time>
      </trkpt>
      <trkpt lat="44.687" lon="5.19252">
        <ele>401</ele>
        <time>2022-11-17T10:14:11Z</time>
      </trkpt>
      <trkpt lat="44.68725" lon="5.19248">
        <ele>396</ele>
        <time>2022-11-17T10:14:11Z</time>
      </trkpt>
      <trkpt lat="44.68736" lon="5.19251">
        <ele>392</ele>
        <time>2022-11-17T10:14:11Z</time>
      </trkpt>
      <trkpt lat="44.68806" lon="5.19317">
        <ele>385</ele>
        <time>2022-11-17T10:14:11Z</time>
      </trkpt>
      <trkpt lat="44.68883" lon="5.19358">
        <ele>377</ele>
        <time>2022-11-17T10:14:11Z</time>
      </trkpt>
      <trkpt lat="44.68921" lon="5.19397">
        <ele>371</ele>
        <time>2022-11-17T10:14:11Z</time>
      </trkpt>
      <trkpt lat="44.68918" lon="5.19406">
        <ele>367</ele>
        <time>2022-11-17T10:14:11Z</time>
      </trkpt>
      <trkpt lat="44.68939" lon="5.19431">
        <ele>363</ele>
        <time>2022-11-17T10:14:11Z</time>
      </trkpt>
      <trkpt lat="44.68953" lon="5.19466">
        <ele>359</ele>
        <time>2022-11-17T10:14:11Z</time>
      </trkpt>
      <trkpt lat="44.68984" lon="5.19501">
        <ele>355</ele>
        <time>2022-11-17T10:14:11Z</time>
      </trkpt>
      <trkpt lat="44.69001" lon="5.19507">
        <ele>351</ele>
        <time>2022-11-17T10:14:11Z</time>
      </trkpt>
      <trkpt lat="44.69003" lon="5.1953">
        <ele>348</ele>
        <time>2022-11-17T10:14:11Z</time>
      </trkpt>
      <trkpt lat="44.69011" lon="5.19545">
        <ele>345</ele>
        <time>2022-11-17T10:14:11Z</time>
      </trkpt>
      <trkpt lat="44.69033" lon="5.19564">
        <ele>342</ele>
        <time>2022-11-17T10:14:11Z</time>
      </trkpt>
      <trkpt lat="44.69054" lon="5.19565">
        <ele>338</ele>
        <time>2022-11-17T10:14:11Z</time>
      </trkpt>
      <trkpt lat="44.69061" lon="5.19578">
        <ele>336</ele>
        <time>2022-11-17T10:14:11Z</time>
      </trkpt>
      <trkpt lat="44.69146" lon="5.19639">
        <ele>330</ele>
        <time>2022-11-17T10:14:11Z</time>
      </trkpt>
      <trkpt lat="44.69153" lon="5.1965">
        <ele>327</ele>
        <time>2022-11-17T10:14:11Z</time>
      </trkpt>
      <trkpt lat="44.69161" lon="5.19678">
        <ele>324</ele>
        <time>2022-11-17T10:14:11Z</time>
      </trkpt>
      <trkpt lat="44.69181" lon="5.19639">
        <ele>320</ele>
        <time>2022-11-17T10:14:11Z</time>
      </trkpt>
      <trkpt lat="44.69212" lon="5.19625">
        <ele>316</ele>
        <time>2022-11-17T10:14:11Z</time>
      </trkpt>
      <trkpt lat="44.69411" lon="5.19624">
        <ele>307</ele>
        <time>2022-11-17T10:14:11Z</time>
      </trkpt>
      <trkpt lat="44.6945" lon="5.19702">
        <ele>298</ele>
        <time>2022-11-17T10:14:11Z</time>
      </trkpt>
      <trkpt lat="44.69478" lon="5.19856">
        <ele>292</ele>
        <time>2022-11-17T10:14:11Z</time>
      </trkpt>
      <trkpt lat="44.69479" lon="5.199">
        <ele>288</ele>
        <time>2022-11-17T10:14:11Z</time>
      </trkpt>
      <trkpt lat="44.69459" lon="5.19902">
        <ele>287</ele>
        <time>2022-11-17T10:14:11Z</time>
      </trkpt>
      <trkpt lat="44.69467" lon="5.1991">
        <ele>285</ele>
        <time>2022-11-17T10:14:11Z</time>
      </trkpt>
      <trkpt lat="44.69473" lon="5.19924">
        <ele>284</ele>
        <time>2022-11-17T10:14:11Z</time>
      </trkpt>
      <trkpt lat="44.69475" lon="5.19957">
        <ele>283</ele>
        <time>2022-11-17T10:14:11Z</time>
      </trkpt>
      <trkpt lat="44.69477" lon="5.19969">
        <ele>283</ele>
        <time>2022-11-17T10:14:11Z</time>
      </trkpt>
      <trkpt lat="44.6949" lon="5.19994">
        <ele>281</ele>
        <time>2022-11-17T10:14:11Z</time>
      </trkpt>
      <trkpt lat="44.695" lon="5.20007">
        <ele>280</ele>
        <time>2022-11-17T10:14:11Z</time>
      </trkpt>
      <trkpt lat="44.69512" lon="5.19897">
        <ele>277</ele>
        <time>2022-11-17T10:14:11Z</time>
      </trkpt>
      <trkpt lat="44.6951" lon="5.19738">
        <ele>273</ele>
        <time>2022-11-17T10:14:11Z</time>
      </trkpt>
      <trkpt lat="44.69519" lon="5.19715">
        <ele>270</ele>
        <time>2022-11-17T10:14:11Z</time>
      </trkpt>
      <trkpt lat="44.69649" lon="5.1971">
        <ele>268</ele>
        <time>2022-11-17T10:14:11Z</time>
      </trkpt>
      <trkpt lat="44.69654" lon="5.19726">
        <ele>267</ele>
        <time>2022-11-17T10:14:11Z</time>
      </trkpt>
      <trkpt lat="44.69663" lon="5.19726">
        <ele>267</ele>
        <time>2022-11-17T10:14:11Z</time>
      </trkpt>
      <trkpt lat="44.69676" lon="5.19864">
        <ele>267</ele>
        <time>2022-11-17T10:14:11Z</time>
      </trkpt>
      <trkpt lat="44.69675" lon="5.19878">
        <ele>268</ele>
        <time>2022-11-17T10:14:11Z</time>
      </trkpt>
      <trkpt lat="44.69684" lon="5.19882">
        <ele>268</ele>
        <time>2022-11-17T10:14:11Z</time>
      </trkpt>
      <trkpt lat="44.69692" lon="5.19891">
        <ele>268</ele>
        <time>2022-11-17T10:14:11Z</time>
      </trkpt>
      <trkpt lat="44.69689" lon="5.19956">
        <ele>268</ele>
        <time>2022-11-17T10:14:11Z</time>
        <extensions>
          <visugpx:TrkExtension xmlns:visugpx="https://www.visugpx.com/editgpx/">
            <visugpx:node>1</visugpx:node>
            </visugpx:TrkExtension>
        </extensions>
      </trkpt>
    </trkseg>
  </trk>
</gpx>